period_start,C,m1,H,J0,J1,J2,J3,J4,J5,JA,JB,JC,JD,JJ,JK,JN,#
2013-10-04 00:00:48,-0.01,0.13,0.00,21.83,24.75,27.46,5.94,29.29,1012.21,2058.55,3513.00,3325.00,3609.77,350.05,323.92,10.82,0000 0000 0000 0000 000000
2013-10-04 00:01:48,-0.08,0.13,0.00,21.84,24.75,27.41,5.98,29.50,1012.19,2058.40,3513.00,3325.00,3609.58,350.43,324.31,10.83,0000 0000 0000 0000 000000
2013-10-04 00:02:48,-0.09,0.12,0.00,21.83,24.75,27.40,5.97,29.54,1012.21,2058.31,3512.99,3325.00,3609.33,349.43,323.30,10.83,0000 0000 0000 0000 000000
2013-10-04 00:03:49,0.00,0.12,0.00,21.84,24.75,27.35,6.01,29.42,1012.22,2058.30,3512.98,3325.00,3609.18,349.25,322.96,10.84,0000 0000 0000 0000 000000
2013-10-04 00:04:49,-0.01,0.12,0.00,21.85,24.75,27.40,6.04,29.21,1012.22,2058.28,3512.97,3325.00,3609.09,350.46,323.79,10.85,0000 0000 0000 0000 000000
2013-10-04 00:05:49,-0.01,0.12,0.00,21.85,24.75,27.39,5.95,29.42,1012.22,2058.24,3512.91,3324.97,3609.04,349.36,323.54,10.85,0000 0000 0000 0000 000000
2013-10-04 00:06:50,-0.00,0.12,0.00,21.87,24.75,27.51,5.98,29.63,1012.21,2058.19,3512.63,3324.97,3609.03,350.33,324.11,10.86,0000 0000 0000 0000 000000
2013-10-04 00:07:50,0.02,0.12,0.00,21.87,24.75,27.47,5.97,29.13,1012.20,2058.19,3512.41,3324.94,3609.02,350.01,323.80,10.86,0000 0000 0000 0000 000000
2013-10-04 00:08:50,0.00,0.12,0.00,21.89,24.75,27.49,6.00,29.33,1012.20,2058.22,3512.35,3324.95,3609.01,349.71,323.50,10.87,0000 0000 0000 0000 000000
2013-10-04 00:09:50,0.03,0.13,0.00,21.90,24.75,27.49,6.02,29.42,1012.21,2058.26,3512.17,3324.90,3609.00,351.19,324.87,10.87,0000 0000 0000 0000 000000
2013-10-04 00:10:51,0.11,0.13,0.00,21.91,24.77,27.50,6.01,29.21,1012.21,2058.23,3512.08,3324.67,3609.00,350.70,324.39,10.88,0000 0000 0000 0000 000000
2013-10-04 00:11:51,0.02,0.13,0.00,21.92,24.77,27.50,6.03,29.46,1012.22,2058.25,3512.03,3324.50,3609.00,350.00,323.74,10.89,0000 0000 0000 0000 000000
2013-10-04 00:12:51,0.05,0.13,0.00,21.92,24.77,27.55,5.97,29.42,1012.22,2058.21,3512.02,3324.43,3609.00,349.72,323.57,10.89,0000 0000 0000 0000 000000
2013-10-04 00:13:52,-0.01,0.13,0.00,21.93,24.77,27.55,5.99,29.17,1012.21,2058.23,3512.01,3324.38,3609.00,350.54,324.24,10.90,0000 0000 0000 0000 000000
2013-10-04 00:14:52,-0.01,0.13,0.00,21.94,24.77,27.56,5.95,29.50,1012.21,2058.25,3512.00,3324.19,3609.00,349.22,322.78,10.90,0000 0000 0000 0000 000000
2013-10-04 00:15:52,0.09,0.13,0.00,21.95,24.77,27.58,6.11,29.38,1012.22,2058.29,3512.00,3324.14,3609.00,350.37,324.06,10.91,0000 0000 0000 0000 000000
2013-10-04 00:16:52,0.03,0.13,0.00,21.95,24.77,27.53,6.14,29.50,1012.20,2058.21,3512.00,3324.08,3608.99,351.40,324.61,10.92,0000 0000 0000 0000 000000
2013-10-04 00:17:53,-0.04,0.13,0.00,21.96,24.77,27.57,6.01,29.38,1012.17,2058.15,3512.00,3324.03,3608.94,350.34,323.66,10.92,0000 0000 0000 0000 000000
2013-10-04 00:18:53,-0.03,0.13,0.00,21.97,24.77,27.44,5.92,29.38,1012.14,2058.14,3511.97,3324.01,3608.91,350.21,324.05,10.93,0000 0000 0000 0000 000000
2013-10-04 00:19:53,0.00,0.13,0.00,21.98,24.77,27.47,6.04,29.29,1012.10,2058.19,3511.97,3324.00,3608.93,351.56,324.69,10.93,0000 0000 0000 0000 000000
2013-10-04 00:20:54,0.06,0.13,0.00,21.98,24.77,27.52,5.84,29.33,1012.03,2058.25,3511.96,3324.00,3608.92,349.19,322.87,10.94,0000 0000 0000 0000 000000
2013-10-04 00:21:54,0.04,0.13,0.00,21.99,24.77,27.48,5.91,29.21,1011.96,2058.26,3511.93,3324.00,3608.87,349.78,323.44,10.95,0000 0000 0000 0000 000000
2013-10-04 00:22:54,-0.01,0.13,0.00,21.99,24.78,27.55,5.88,29.33,1011.94,2058.25,3511.85,3324.00,3608.76,348.66,322.33,10.95,0000 0000 0000 0000 000000
2013-10-04 00:23:54,0.05,0.13,0.00,21.99,24.79,27.54,5.98,29.38,1011.97,2058.24,3511.68,3324.00,3608.61,349.92,323.27,10.96,0000 0000 0000 0000 000000
2013-10-04 00:24:55,0.02,0.13,0.00,21.99,24.79,27.51,5.90,29.33,1011.98,2058.13,3511.48,3324.00,3608.39,349.89,323.49,10.96,0000 0000 0000 0000 000000
2013-10-04 00:25:55,-0.04,0.13,0.00,21.99,24.80,27.55,6.00,29.46,1011.99,2058.14,3511.29,3324.00,3608.32,350.77,324.30,10.97,0000 0000 0000 0000 000000
2013-10-04 00:26:55,0.03,0.13,0.00,21.99,24.80,27.58,5.90,29.25,1011.94,2058.30,3511.20,3324.00,3608.25,348.30,322.00,10.97,0000 0000 0000 0000 000000
2013-10-04 00:27:56,0.16,0.13,0.00,21.99,24.80,27.61,5.93,29.46,1011.84,2058.32,3511.11,3323.99,3608.14,350.28,323.81,10.98,0000 0000 0000 0000 000000
2013-10-04 00:28:56,0.02,0.13,0.00,21.99,24.80,27.63,6.05,29.58,1011.84,2058.24,3511.04,3323.96,3608.07,350.62,324.12,10.99,0000 0000 0000 0000 000000
2013-10-04 00:29:56,-0.04,0.13,0.00,21.99,24.80,27.55,6.05,29.42,1011.80,2058.20,3511.02,3323.96,3608.04,350.57,324.07,10.99,0000 0000 0000 0000 000000
2013-10-04 00:30:57,-0.03,0.13,0.00,21.99,24.80,27.48,5.97,29.29,1011.79,2058.24,3511.01,3323.97,3608.02,350.11,323.51,11.00,0000 0000 0000 0000 000000
2013-10-04 00:31:57,0.07,0.13,0.00,22.01,24.80,27.58,5.94,29.25,1011.80,2058.20,3511.00,3323.97,3608.00,350.38,323.87,11.00,0000 0000 0000 0000 000000
2013-10-04 00:32:57,-0.07,0.13,0.00,22.01,24.80,27.56,5.87,29.42,1011.84,2058.17,3511.00,3323.97,3608.00,349.68,323.23,11.01,0000 0000 0000 0000 000000
2013-10-04 00:33:57,0.00,0.13,0.00,22.01,24.80,27.53,5.94,29.38,1011.87,2058.19,3511.00,3323.94,3608.00,349.99,323.81,11.02,0000 0000 0000 0000 000000
2013-10-04 00:34:57,0.02,0.13,0.00,22.01,24.80,27.50,5.93,29.42,1011.84,2058.19,3511.00,3323.84,3608.00,348.96,322.66,11.02,0000 0000 0000 0000 000000
2013-10-04 00:35:58,0.01,0.13,0.00,22.00,24.81,27.58,5.88,29.25,1011.83,2058.17,3511.00,3323.50,3607.99,349.53,323.10,11.03,0000 0000 0000 0000 000000
2013-10-04 00:36:58,0.04,0.13,0.00,22.01,24.82,27.62,6.02,29.46,1011.83,2058.11,3510.97,3323.24,3607.98,350.54,324.45,11.03,0000 0000 0000 0000 000000
2013-10-04 00:37:58,0.01,0.13,0.00,22.00,24.82,27.62,6.13,29.46,1011.82,2058.07,3510.84,3323.10,3607.98,350.68,324.15,11.04,0000 0000 0000 0000 000000
2013-10-04 00:38:58,0.01,0.13,0.00,22.01,24.82,27.65,6.03,29.54,1011.78,2058.05,3510.63,3323.04,3607.96,349.24,323.03,11.04,0000 0000 0000 0000 000000
2013-10-04 00:39:59,0.02,0.13,0.00,22.01,24.82,27.63,5.91,29.29,1011.80,2058.04,3510.46,3323.01,3607.88,348.84,323.11,11.05,0000 0000 0000 0000 000000
2013-10-04 00:40:59,0.03,0.13,0.00,22.02,24.82,27.59,5.89,29.54,1011.77,2058.06,3510.27,3323.00,3607.82,349.03,322.62,11.06,0000 0000 0000 0000 000000
2013-10-04 00:41:59,0.06,0.13,0.00,22.02,24.82,27.61,5.96,29.75,1011.76,2058.05,3510.15,3323.00,3607.53,349.98,323.33,11.06,0000 0000 0000 0000 000000
2013-10-04 00:42:59,0.03,0.13,0.00,22.02,24.82,27.67,6.02,29.29,1011.74,2058.02,3510.06,3323.00,3607.23,350.06,323.06,11.07,0000 0000 0000 0000 000000
2013-10-04 00:44:00,0.01,0.13,0.00,22.03,24.82,27.61,6.05,29.50,1011.76,2058.01,3510.02,3323.00,3607.13,349.85,322.48,11.07,0000 0000 0000 0000 000000
2013-10-04 00:45:00,0.00,0.13,0.00,22.03,24.83,27.55,5.80,29.42,1011.75,2058.01,3510.00,3323.00,3607.06,349.35,322.88,11.08,0000 0000 0000 0000 000000
2013-10-04 00:46:00,0.01,0.13,0.00,22.03,24.84,27.55,6.05,29.38,1011.75,2058.02,3510.00,3323.00,3607.03,350.55,323.98,11.09,0000 0000 0000 0000 000000
2013-10-04 00:47:00,0.02,0.13,0.00,22.04,24.84,27.47,5.99,29.33,1011.77,2058.03,3510.00,3322.98,3607.01,349.73,323.22,11.09,0000 0000 0000 0000 000000
2013-10-04 00:48:01,0.01,0.13,0.00,22.04,24.85,27.47,6.00,29.33,1011.75,2058.02,3510.00,3322.98,3607.00,350.57,323.98,11.10,0000 0000 0000 0000 000000
2013-10-04 00:49:01,-0.01,0.13,0.00,22.04,24.85,27.48,6.02,29.50,1011.76,2058.02,3510.00,3322.98,3607.00,350.36,323.85,11.10,0000 0000 0000 0000 000000
2013-10-04 00:50:01,0.00,0.13,0.00,22.04,24.85,27.58,6.06,29.54,1011.75,2058.00,3509.99,3322.92,3607.00,349.78,323.47,11.11,0000 0000 0000 0000 000000
2013-10-04 00:51:01,0.00,0.13,0.00,22.04,24.85,27.61,5.96,29.25,1011.75,2058.00,3509.98,3322.89,3607.00,349.71,323.40,11.12,0000 0000 0000 0000 000000
2013-10-04 00:52:01,0.00,0.13,0.00,22.05,24.85,27.58,5.93,29.38,1011.75,2058.00,3509.98,3322.88,3607.00,349.08,322.79,11.12,0000 0000 0000 0000 000000
2013-10-04 00:53:02,0.00,0.13,0.00,22.06,24.85,27.58,5.98,29.54,1011.75,2058.01,3509.85,3322.58,3607.00,349.72,323.58,11.13,0000 0000 0000 0000 000000
2013-10-04 00:54:02,0.10,0.13,0.00,22.05,24.86,27.48,6.00,29.38,1011.73,2058.02,3509.76,3322.42,3606.97,350.65,324.04,11.13,0000 0000 0000 0000 000000
2013-10-04 00:55:02,0.03,0.13,0.00,22.06,24.87,27.61,6.02,29.29,1011.73,2058.01,3509.58,3322.28,3606.97,350.99,323.96,11.14,0000 0000 0000 0000 000000
2013-10-04 00:56:02,0.07,0.13,0.00,22.07,24.87,27.57,5.96,29.42,1011.73,2058.00,3509.34,3322.16,3606.90,350.19,323.81,11.14,0000 0000 0000 0000 000000
2013-10-04 00:57:03,0.05,0.13,0.00,22.07,24.87,27.61,6.11,29.42,1011.74,2058.00,3509.17,3322.07,3606.85,350.59,323.97,11.15,0000 0000 0000 0000 000000
2013-10-04 00:58:03,0.03,0.13,0.00,22.08,24.87,27.69,5.94,29.58,1011.73,2058.00,3509.07,3322.02,3606.72,349.80,323.23,11.16,0000 0000 0000 0000 000000
2013-10-04 00:59:03,0.04,0.13,0.00,22.08,24.87,27.64,5.96,29.38,1011.73,2058.00,3509.03,3322.00,3606.51,349.82,323.61,11.16,0000 0000 0000 0000 000000
2013-10-04 01:00:03,0.03,0.13,0.00,22.09,24.87,27.59,5.88,29.17,1011.73,2058.00,3509.01,3322.01,3606.30,349.70,323.12,11.17,0000 0000 0000 0000 000000
2013-10-04 01:01:04,0.02,0.13,0.00,22.11,24.89,27.56,5.98,29.00,1011.73,2058.00,3509.00,3322.00,3606.12,350.57,323.91,11.17,0000 0000 0000 0000 000000
2013-10-04 01:02:04,0.02,0.13,0.00,22.11,24.89,27.63,5.91,29.29,1011.73,2058.00,3509.00,3322.00,3606.05,349.61,322.75,11.18,0000 0000 0000 0000 000000
2013-10-04 01:03:04,0.00,0.13,0.00,22.11,24.90,27.68,6.05,29.29,1011.73,2058.00,3509.00,3322.00,3606.04,351.35,324.63,11.19,0000 0000 0000 0000 000000
2013-10-04 01:04:04,0.00,0.13,0.00,22.12,24.90,27.65,6.03,29.46,1011.73,2058.00,3509.00,3321.99,3606.02,350.53,323.86,11.19,0000 0000 0000 0000 000000
2013-10-04 01:05:04,0.00,0.13,0.00,22.12,24.90,27.63,5.91,29.21,1011.73,2058.00,3508.99,3321.96,3606.00,350.54,324.02,11.20,0000 0000 0000 0000 000000
2013-10-04 01:06:05,0.01,0.13,0.00,22.12,24.90,27.60,5.99,29.08,1011.73,2058.00,3508.98,3321.96,3605.99,350.01,323.38,11.20,0000 0000 0000 0000 000000
2013-10-04 01:07:05,0.00,0.13,0.00,22.12,24.90,27.72,5.99,29.46,1011.73,2058.01,3508.98,3321.95,3605.98,349.22,322.65,11.21,0000 0000 0000 0000 000000
2013-10-04 01:08:05,0.00,0.13,0.00,22.14,24.91,27.69,6.04,29.29,1011.73,2058.01,3508.92,3321.95,3605.99,350.62,323.93,11.21,0000 0000 0000 0000 000000
2013-10-04 01:09:05,0.01,0.13,0.00,22.14,24.92,27.69,5.96,29.38,1011.73,2058.00,3508.87,3321.94,3605.98,350.10,323.61,11.22,0000 0000 0000 0000 000000
2013-10-04 01:10:06,0.01,0.13,0.00,22.15,24.92,27.64,5.98,29.33,1011.73,2058.00,3508.56,3321.88,3605.98,349.60,322.97,11.23,0000 0000 0000 0000 000000
2013-10-04 01:11:06,0.06,0.13,0.00,22.15,24.92,27.65,5.95,29.29,1011.73,2058.01,3508.25,3321.74,3605.97,350.16,323.50,11.23,0000 0000 0000 0000 000000
2013-10-04 01:12:06,0.06,0.13,0.00,22.16,24.92,27.72,5.96,29.33,1011.73,2058.00,3508.13,3321.61,3605.97,349.85,322.92,11.24,0000 0000 0000 0000 000000
2013-10-04 01:13:06,0.03,0.13,0.00,22.17,24.92,27.78,5.92,29.58,1011.73,2058.00,3508.07,3321.36,3605.96,349.40,323.18,11.24,0000 0000 0000 0000 000000
2013-10-04 01:14:06,0.06,0.13,0.00,22.17,24.93,27.78,6.01,29.33,1011.72,2058.00,3508.03,3321.18,3605.88,350.15,323.29,11.25,0000 0000 0000 0000 000000
2013-10-04 01:15:07,0.05,0.13,0.00,22.17,24.93,27.86,6.06,29.46,1011.71,2058.00,3508.00,3321.12,3605.68,349.64,322.98,11.26,0000 0000 0000 0000 000000
2013-10-04 01:16:07,0.04,0.13,0.00,22.18,24.94,27.84,6.08,29.29,1011.70,2058.00,3508.00,3321.06,3605.48,350.73,323.97,11.26,0000 0000 0000 0000 000000
2013-10-04 01:17:07,0.04,0.13,0.00,22.19,24.95,27.79,5.98,29.42,1011.69,2058.00,3508.00,3321.04,3605.36,350.11,323.39,11.27,0000 0000 0000 0000 000000
2013-10-04 01:18:07,0.01,0.13,0.00,22.19,24.95,27.79,5.90,29.13,1011.67,2058.00,3507.99,3321.01,3605.24,349.84,323.12,11.27,0000 0000 0000 0000 000000
2013-10-04 01:19:07,0.02,0.14,0.00,22.20,24.95,27.82,5.91,29.25,1011.63,2058.00,3507.98,3321.00,3605.15,350.10,323.61,11.28,0000 0000 0000 0000 000000
2013-10-04 01:20:07,0.01,0.14,0.00,22.21,24.95,27.75,5.94,29.50,1011.61,2058.00,3507.98,3321.00,3605.08,349.45,322.84,11.28,0000 0000 0000 0000 000000
2013-10-04 01:21:08,0.00,0.14,0.00,22.21,24.95,27.72,6.02,29.42,1011.63,2058.00,3507.87,3320.99,3605.03,350.73,324.14,11.29,0000 0000 0000 0000 000000
2013-10-04 01:22:08,0.02,0.14,0.00,22.22,24.96,27.78,5.98,29.25,1011.63,2058.00,3507.76,3320.99,3605.01,350.32,323.50,11.30,0000 0000 0000 0000 000000
2013-10-04 01:23:08,0.01,0.14,0.00,22.22,24.97,27.79,5.94,29.21,1011.55,2058.00,3507.58,3320.99,3605.00,349.47,322.57,11.30,0000 0000 0000 0000 000000
2013-10-04 01:24:08,0.03,0.14,0.00,22.22,24.97,27.80,5.93,29.25,1011.49,2057.99,3507.33,3320.97,3605.00,349.76,322.96,11.31,0000 0000 0000 0000 000000
2013-10-04 01:25:08,0.02,0.14,0.00,22.22,24.97,27.84,5.92,29.25,1011.45,2057.99,3507.22,3320.96,3605.00,349.80,322.98,11.31,0000 0000 0000 0000 000000
2013-10-04 01:26:09,0.01,0.14,0.00,22.22,24.97,27.89,5.97,29.21,1011.42,2057.99,3507.18,3320.96,3605.00,349.50,322.79,11.32,0000 0000 0000 0000 000000
2013-10-04 01:27:09,0.00,0.14,0.00,22.22,24.97,27.82,5.88,29.21,1011.35,2057.99,3507.10,3320.95,3605.00,349.63,323.03,11.33,0000 0000 0000 0000 000000
2013-10-04 01:28:09,0.01,0.14,0.00,22.24,24.97,27.77,5.92,29.21,1011.30,2057.99,3507.04,3320.82,3604.95,350.04,323.21,11.33,0000 0000 0000 0000 000000
2013-10-04 01:29:09,0.05,0.14,0.00,22.24,24.97,27.83,5.87,29.13,1011.30,2057.99,3507.01,3320.58,3604.94,349.44,322.47,11.34,0000 0000 0000 0000 000000
2013-10-04 01:30:09,0.06,0.14,0.00,22.24,24.98,27.85,5.97,29.38,1011.27,2057.98,3507.00,3320.42,3604.85,350.81,324.14,11.34,0000 0000 0000 0000 000000
2013-10-04 01:31:10,0.03,0.14,0.00,22.25,24.99,27.89,6.00,29.13,1011.26,2057.97,3506.99,3320.20,3604.55,351.20,324.19,11.35,0000 0000 0000 0000 000000
2013-10-04 01:32:10,0.05,0.14,0.00,22.27,25.00,27.85,5.92,29.13,1011.25,2057.97,3506.99,3320.16,3604.55,350.97,323.95,11.35,0000 0000 0000 0000 000000
2013-10-04 01:33:10,0.01,0.14,0.00,22.27,25.00,27.86,5.92,29.17,1011.25,2057.98,3506.99,3320.08,3604.31,350.12,322.89,11.36,0000 0000 0000 0000 000000
2013-10-04 01:34:11,0.06,0.14,0.00,22.27,25.00,27.75,6.08,29.25,1011.25,2057.99,3506.99,3320.06,3604.13,350.53,323.54,11.37,0000 0000 0000 0000 000000
2013-10-04 01:35:11,0.02,0.14,0.00,22.27,25.00,27.74,5.77,29.13,1011.26,2057.98,3506.96,3320.03,3604.06,349.45,322.54,11.37,0000 0000 0000 0000 000000
2013-10-04 01:36:11,0.02,0.14,0.00,22.28,25.01,27.79,5.95,29.42,1011.25,2057.99,3506.91,3320.01,3604.03,349.58,322.65,11.38,0000 0000 0000 0000 000000
2013-10-04 01:37:11,0.01,0.14,0.00,22.29,25.02,27.86,5.84,29.33,1011.25,2057.98,3506.78,3320.00,3604.03,349.41,322.49,11.38,0000 0000 0000 0000 000000
2013-10-04 01:38:12,0.01,0.14,0.00,22.29,25.02,27.86,5.97,29.42,1011.25,2057.97,3506.45,3320.00,3604.02,351.19,324.15,11.39,0000 0000 0000 0000 000000
2013-10-04 01:39:12,0.04,0.14,0.00,22.29,25.02,27.85,5.93,29.33,1011.25,2057.97,3506.31,3320.00,3604.00,349.38,322.45,11.40,0000 0000 0000 0000 000000
2013-10-04 01:40:12,0.02,0.14,0.00,22.31,25.02,27.83,5.88,29.25,1011.25,2057.97,3506.15,3320.00,3604.00,350.04,322.89,11.40,0000 0000 0000 0000 000000
2013-10-04 01:41:13,0.01,0.14,0.00,22.31,25.02,27.90,6.06,29.50,1011.25,2057.95,3506.07,3320.00,3604.00,351.06,324.03,11.41,0000 0000 0000 0000 000000
2013-10-04 01:42:13,-0.00,0.14,0.00,22.32,25.03,27.87,6.00,29.58,1011.25,2057.93,3506.03,3319.96,3603.96,350.19,323.18,11.41,0000 0000 0000 0000 000000
2013-10-04 01:43:13,-0.00,0.14,0.00,22.32,25.04,27.92,5.95,29.33,1011.25,2057.91,3506.01,3319.90,3603.93,350.47,323.43,11.42,0000 0000 0000 0000 000000
2013-10-04 01:44:13,0.04,0.14,0.00,22.32,25.05,27.91,6.07,29.67,1011.25,2057.90,3506.00,3319.81,3603.77,350.70,323.49,11.42,0000 0000 0000 0000 000000
2013-10-04 01:45:13,0.02,0.14,0.00,22.32,25.05,27.87,5.87,29.13,1011.25,2057.86,3505.98,3319.57,3603.47,349.82,323.11,11.43,0000 0000 0000 0000 000000
2013-10-04 01:46:14,0.05,0.14,0.00,22.34,25.05,27.86,5.86,29.17,1011.25,2057.82,3505.98,3319.34,3603.27,348.16,321.28,11.44,0000 0000 0000 0000 000000
2013-10-04 01:47:14,0.05,0.14,0.00,22.34,25.06,27.91,6.02,29.29,1011.25,2057.85,3505.97,3319.24,3603.18,350.63,323.55,11.44,0000 0000 0000 0000 000000
2013-10-04 01:48:14,0.02,0.14,0.00,22.34,25.07,27.85,5.91,29.08,1011.25,2057.85,3505.96,3319.15,3603.13,351.23,324.07,11.45,0000 0000 0000 0000 000000
2013-10-04 01:49:15,0.02,0.14,0.00,22.35,25.07,27.90,5.98,29.46,1011.25,2057.76,3505.94,3319.08,3603.05,349.13,322.17,11.45,0000 0000 0000 0000 000000
2013-10-04 01:50:15,-0.01,0.14,0.00,22.36,25.07,27.79,5.97,29.29,1011.25,2057.61,3505.80,3319.04,3603.02,351.04,323.92,11.46,0000 0000 0000 0000 000000
2013-10-04 01:51:15,-0.09,0.14,0.00,22.37,25.07,27.86,5.92,29.46,1011.25,2057.44,3505.41,3319.01,3603.00,350.70,323.60,11.47,0000 0000 0000 0000 000000
2013-10-04 01:52:15,-0.07,0.14,0.00,22.36,25.07,27.89,5.98,29.29,1011.25,2057.39,3505.16,3319.00,3603.00,350.36,323.28,11.47,0000 0000 0000 0000 000000
2013-10-04 01:53:16,-0.01,0.14,0.00,22.36,25.08,27.94,5.87,29.29,1011.25,2057.35,3505.09,3319.00,3603.00,349.88,322.84,11.48,0000 0000 0000 0000 000000
2013-10-04 01:54:16,-0.03,0.14,0.00,22.37,25.09,27.85,5.91,29.33,1011.25,2057.24,3505.04,3318.99,3603.00,349.65,322.62,11.48,0000 0000 0000 0000 000000
2013-10-04 01:55:16,-0.07,0.14,0.00,22.38,25.10,27.84,5.89,29.42,1011.25,2057.15,3505.01,3318.97,3602.99,349.20,322.12,11.49,0000 0000 0000 0000 000000
2013-10-04 01:56:16,-0.03,0.14,0.00,22.39,25.10,27.93,5.98,29.17,1011.25,2057.17,3505.00,3318.96,3602.99,350.59,323.43,11.50,0000 0000 0000 0000 000000
2013-10-04 01:57:16,0.00,0.14,0.00,22.39,25.10,27.94,6.04,29.42,1011.25,2057.10,3505.00,3318.96,3602.99,350.17,322.58,11.50,0000 0000 0000 0000 000000
2013-10-04 01:58:17,-0.05,0.14,0.00,22.39,25.10,28.04,6.13,29.33,1011.25,2057.13,3505.00,3318.96,3602.97,350.82,323.70,11.51,0000 0000 0000 0000 000000
2013-10-04 01:59:17,0.02,0.14,0.00,22.40,25.11,27.98,5.93,29.38,1011.25,2057.20,3505.00,3318.96,3602.87,350.12,323.01,11.51,0000 0000 0000 0000 000000
2013-10-04 02:00:17,0.09,0.14,0.00,22.41,25.12,27.92,6.03,29.33,1011.25,2057.14,3505.00,3318.79,3602.45,350.18,322.83,11.52,0000 0000 0000 0000 000000
2013-10-04 02:01:17,0.03,0.14,0.00,22.42,25.12,27.99,5.85,29.29,1011.25,2057.05,3504.99,3318.52,3602.17,349.38,322.15,11.52,0000 0000 0000 0000 000000
2013-10-04 02:02:18,0.01,0.14,0.00,22.43,25.12,28.02,6.06,29.29,1011.25,2057.05,3504.97,3318.31,3602.10,350.73,322.97,11.53,0000 0000 0000 0000 000000
2013-10-04 02:03:18,0.04,0.14,0.00,22.44,25.12,28.03,6.04,29.42,1011.25,2057.04,3504.88,3318.17,3602.05,350.84,323.45,11.54,0000 0000 0000 0000 000000
2013-10-04 02:04:19,0.04,0.14,0.00,22.44,25.14,28.06,5.85,29.54,1011.25,2057.02,3504.50,3318.08,3602.02,350.14,322.88,11.54,0000 0000 0000 0000 000000
2013-10-04 02:05:19,0.05,0.14,0.00,22.44,25.14,27.97,5.88,29.25,1011.25,2057.02,3504.22,3318.03,3602.00,349.30,322.22,11.55,0000 0000 0000 0000 000000
2013-10-04 02:06:19,0.04,0.14,0.00,22.44,25.15,28.03,5.95,29.25,1011.25,2057.03,3504.12,3318.00,3601.98,349.56,322.63,11.55,0000 0000 0000 0000 000000
2013-10-04 02:07:19,0.01,0.14,0.00,22.45,25.15,28.02,5.90,29.33,1011.25,2057.03,3504.05,3317.99,3601.98,349.20,322.28,11.56,0000 0000 0000 0000 000000
2013-10-04 02:08:19,0.01,0.14,0.00,22.46,25.15,28.07,5.94,29.25,1011.25,2057.03,3504.03,3317.99,3601.97,350.48,322.78,11.57,0000 0000 0000 0000 000000
2013-10-04 02:09:19,0.00,0.14,0.00,22.47,25.16,28.09,6.01,29.54,1011.25,2057.01,3504.02,3317.99,3601.93,349.77,322.51,11.57,0000 0000 0000 0000 000000
2013-10-04 02:10:20,-0.00,0.14,0.00,22.47,25.17,28.05,5.95,29.21,1011.25,2057.00,3504.01,3317.97,3601.81,349.76,322.61,11.58,0000 0000 0000 0000 000000
2013-10-04 02:11:20,0.02,0.14,0.00,22.48,25.17,27.98,5.98,29.29,1011.25,2057.01,3504.00,3317.92,3601.56,351.09,323.82,11.58,0000 0000 0000 0000 000000
2013-10-04 02:12:20,0.04,0.14,0.00,22.49,25.17,27.96,5.95,29.29,1011.24,2057.01,3504.00,3317.68,3601.33,350.26,323.04,11.59,0000 0000 0000 0000 000000
2013-10-04 02:13:20,0.07,0.14,0.00,22.49,25.17,27.99,5.92,29.25,1011.24,2057.00,3503.99,3317.46,3601.18,350.45,323.17,11.59,0000 0000 0000 0000 000000
2013-10-04 02:14:21,0.06,0.14,0.00,22.50,25.18,28.08,5.90,29.46,1011.24,2057.00,3503.95,3317.26,3601.07,349.98,322.79,11.60,0000 0000 0000 0000 000000
2013-10-04 02:15:21,0.05,0.14,0.00,22.51,25.19,28.11,5.88,29.17,1011.24,2057.00,3503.79,3317.14,3601.02,349.47,322.30,11.61,0000 0000 0000 0000 000000
2013-10-04 02:16:21,0.05,0.14,0.00,22.51,25.20,28.11,6.06,29.42,1011.24,2057.00,3503.53,3317.05,3601.00,350.00,322.54,11.61,0000 0000 0000 0000 000000
2013-10-04 02:17:21,0.05,0.14,0.00,22.52,25.20,28.09,6.02,29.29,1011.24,2057.00,3503.32,3317.02,3601.00,350.42,323.01,11.62,0000 0000 0000 0000 000000
2013-10-04 02:18:21,0.03,0.14,0.00,22.52,25.20,28.11,5.97,29.63,1011.24,2057.00,3503.13,3317.01,3601.00,349.51,323.11,11.62,0000 0000 0000 0000 000000
2013-10-04 02:19:22,0.02,0.14,0.00,22.53,25.21,28.10,6.03,29.08,1011.24,2057.00,3503.05,3317.00,3601.00,350.65,323.25,11.63,0000 0000 0000 0000 000000
2013-10-04 02:20:22,0.01,0.14,0.00,22.54,25.22,28.17,6.02,29.38,1011.24,2057.00,3503.01,3316.99,3601.00,350.10,322.49,11.64,0000 0000 0000 0000 000000
2013-10-04 02:21:22,0.00,0.14,0.00,22.54,25.22,28.08,5.94,29.29,1011.24,2057.00,3503.00,3316.99,3600.98,349.13,321.96,11.64,0000 0000 0000 0000 000000
2013-10-04 02:22:22,0.00,0.14,0.00,22.54,25.22,28.07,5.86,29.25,1011.24,2057.00,3503.00,3316.99,3600.98,349.50,322.42,11.65,0000 0000 0000 0000 000000
2013-10-04 02:23:23,0.00,0.14,0.00,22.55,25.22,28.17,5.83,29.25,1011.23,2057.00,3503.00,3316.99,3600.95,349.33,321.84,11.65,0000 0000 0000 0000 000000
2013-10-04 02:24:23,0.01,0.14,0.00,22.56,25.23,28.19,5.87,29.33,1011.24,2057.00,3502.98,3316.97,3600.74,349.54,322.14,11.66,0000 0000 0000 0000 000000
2013-10-04 02:25:23,0.03,0.14,0.00,22.57,25.24,28.23,5.81,29.33,1011.23,2057.00,3502.91,3316.94,3600.35,349.85,322.58,11.67,0000 0000 0000 0000 000000
2013-10-04 02:26:23,0.07,0.14,0.00,22.57,25.25,28.16,5.93,29.25,1011.22,2056.98,3502.65,3316.65,3600.13,350.11,322.81,11.67,0000 0000 0000 0000 000000
2013-10-04 02:27:24,0.09,0.14,0.00,22.57,25.25,28.20,5.97,29.33,1011.22,2056.99,3502.42,3316.48,3600.04,350.22,322.92,11.68,0000 0000 0000 0000 000000
2013-10-04 02:28:24,0.08,0.14,0.00,22.59,25.25,28.19,5.99,29.29,1011.21,2056.98,3502.25,3316.25,3600.01,349.80,322.52,11.68,0000 0000 0000 0000 000000
2013-10-04 02:29:24,0.06,0.14,0.00,22.60,25.26,28.18,5.98,29.42,1011.19,2056.97,3502.10,3316.10,3600.00,349.44,323.05,11.69,0000 0000 0000 0000 000000
2013-10-04 02:30:25,0.04,0.14,0.00,22.60,25.27,28.14,5.88,29.08,1011.20,2056.99,3502.04,3316.04,3600.00,350.05,322.81,11.69,0000 0000 0000 0000 000000
2013-10-04 02:31:25,0.02,0.14,0.00,22.62,25.27,28.20,6.02,29.25,1011.19,2056.98,3502.01,3316.01,3600.00,350.67,323.28,11.70,0000 0000 0000 0000 000000
2013-10-04 02:32:25,0.01,0.14,0.00,22.62,25.27,28.19,5.95,29.46,1011.17,2056.98,3502.00,3316.01,3600.00,349.75,322.03,11.71,0000 0000 0000 0000 000000
2013-10-04 02:33:26,0.00,0.14,0.00,22.63,25.27,28.14,5.98,29.21,1011.13,2056.98,3502.00,3316.00,3600.00,351.21,323.74,11.71,0000 0000 0000 0000 000000
2013-10-04 02:34:26,0.00,0.14,0.00,22.62,25.29,28.18,5.87,29.38,1011.15,2056.99,3502.00,3316.00,3600.00,348.92,321.64,11.72,0000 0000 0000 0000 000000
2013-10-04 02:35:26,0.00,0.14,0.00,22.63,25.30,28.22,6.02,29.33,1011.18,2056.98,3502.00,3316.00,3599.92,350.23,322.85,11.72,0000 0000 0000 0000 000000
2013-10-04 02:36:26,0.01,0.15,0.00,22.64,25.30,28.27,5.85,29.42,1011.19,2056.97,3501.96,3315.99,3599.61,349.52,322.04,11.73,0000 0000 0000 0000 000000